カタログに戻る

FENGYUN 1C DEB

運用中PO
NORAD 30288·DEBRIS·🇨🇳 China

打ち上げ May 10, 1999 から Taiyuan Satellite Launch Center

Loading…

次のパス (今後24時間)

TLE

最新Source: Space-Track

元期: Sep 14, 2026, 06:32 UTC

1 30288U 99025YZ  26257.27287779  .00002651  00000-0  94723-3 0  9999
2 30288  99.3949   7.3957 0020924 249.3129 139.6101 14.34945633 15148

AllMySatでFENGYUN 1C DEBをリアルタイム追跡

Download on the App Store